N8SHA Weather Reports


Display with metric or nautical units.
time (UTC)temp
F
wind
direction
speed
MPH
gust
MPH
rain 1hr
in
rain 24hr
in
rain mn
in
humidity
%
barometer
mb
20260506044424 48 139 3.0 3.0 0.00 0.00 0.00 59 1009.1
20260506043920 48 315 0.0 3.0 0.00 0.00 0.00 58 1008.8
20260506043418 48 33 2.0 4.0 0.00 0.00 0.00 57 1008.7
20260506042915 48 19 0.0 4.0 0.00 0.00 0.00 58 1008.6
20260506042415 48 298 1.0 6.0 0.00 0.00 0.00 58 1008.7
20260506041912 48 119 2.0 3.0 0.00 0.00 0.00 57 1008.6
20260506041410 48 340 1.0 3.0 0.00 0.00 0.00 57 1008.7
20260506040907 48 113 0.0 3.0 0.00 0.00 0.00 57 1008.6
20260506040404 48 83 1.0 3.0 0.00 0.00 0.00 59 1008.8
20260506035900 48 110 0.0 2.0 0.00 0.00 0.00 58 1008.6
20260506035358 48 83 2.0 3.0 0.00 0.00 0.00 57 1008.7
20260506034854 48 115 2.0 3.0 0.00 0.00 0.00 57 1008.6
20260506034352 48 124 0.0 2.0 0.00 0.00 0.00 57 1008.7
20260506033849 48 18 2.0 3.0 0.00 0.00 0.00 57 1008.8
20260506033346 48 75 0.0 2.0 0.00 0.00 0.00 60 1008.6
20260506032843 48 36 1.0 2.0 0.00 0.00 0.00 59 1008.6
20260506032339 48 131 2.0 3.0 0.00 0.00 0.00 60 1008.5
20260506031836 48 140 2.0 3.0 0.00 0.00 0.00 60 1008.8
20260506031333 48 149 1.0 2.0 0.00 0.00 0.00 59 1008.7
20260506030831 48 170 1.0 3.0 0.00 0.00 0.00 59 1008.9
20260506030329 48 129 0.0 2.0 0.00 0.00 0.00 59 1008.7
20260506025825 48 143 1.0 3.0 0.00 0.00 0.00 59 1008.7
20260506025322 48 139 2.0 2.0 0.00 0.00 0.00 59 1008.6
20260506024819 48 119 0.0 2.0 0.00 0.00 0.00 58 1008.5
20260506024316 48 155 0.0 2.0 0.00 0.00 0.00 57 1008.6
20260506023812 48 152 2.0 3.0 0.00 0.00 0.00 57 1008.6
20260506023309 48 160 0.0 4.0 0.00 0.00 0.00 57 1008.6
20260506022805 48 148 2.0 3.0 0.00 0.00 0.00 57 1008.7
20260506022305 48 129 0.0 2.0 0.00 0.00 0.00 57 1008.5
20260506021801 48 110 2.0 3.0 0.00 0.00 0.00 57 1008.4
20260506021258 49 141 0.0 3.0 0.00 0.00 0.00 57 1008.3
20260506020755 49 157 0.0 4.0 0.00 0.00 0.00 55 1008.7
20260506020253 49 139 2.0 3.0 0.00 0.00 0.00 56 1008.7
20260506015750 49 157 1.0 3.0 0.00 0.00 0.00 56 1008.6
20260506015247 49 135 0.0 3.0 0.00 0.00 0.00 55 1008.5
20260506014744 49 174 0.0 3.0 0.00 0.00 0.00 55 1008.3
20260506014241 49 121 2.0 3.0 0.00 0.00 0.00 55 1008.1
20260506013738 49 133 1.0 3.0 0.00 0.00 0.00 54 1008.2
20260506013235 50 96 1.0 2.0 0.00 0.00 0.00 53 1008.0
20260506012731 50 62 0.0 3.0 0.00 0.00 0.00 52 1008.2
20260506012228 50 343 1.0 2.0 0.00 0.00 0.00 51 1008.0
20260506011726 50 157 0.0 4.0 0.00 0.00 0.00 51 1008.1
20260506011221 50 44 0.0 3.0 0.00 0.00 0.00 51 1007.9
20260506010720 50 89 0.0 3.0 0.00 0.00 0.00 50 1008.0
20260506010217 50 150 1.0 4.0 0.00 0.00 0.00 50 1007.9
20260506005715 50 48 2.0 3.0 0.00 0.00 0.00 50 1008.1
20260506005211 51 115 1.0 2.0 0.00 0.00 0.00 49 1008.1
20260506004707 51 109 0.0 4.0 0.00 0.00 0.00 48 1008.0
20260506004205 51 242 0.0 3.0 0.00 0.00 0.00 48 1008.0
20260506003700 51 176 2.0 3.0 0.00 0.00 0.00 49 1008.0
20260506003157 51 156 1.0 3.0 0.00 0.00 0.00 48 1008.1
20260506002653 51 267 1.0 8.0 0.00 0.00 0.00 47 1008.0
20260506002149 51 355 2.0 6.0 0.00 0.00 0.00 48 1008.2
20260506001645 51 162 3.0 6.0 0.00 0.00 0.00 48 1007.9
20260506001143 51 180 2.0 4.0 0.00 0.00 0.00 48 1008.0
20260506000640 51 277 3.0 6.0 0.00 0.00 0.00 49 1007.8
20260506000137 51 40 1.0 2.0 0.00 0.00 0.00 49 1007.9
20260505235635 52 5 1.0 4.0 0.00 0.00 0.00 48 1007.8
20260505235132 52 117 2.0 5.0 0.00 0.00 0.00 47 1008.0
20260505234629 52 192 3.0 5.0 0.00 0.00 0.00 46 1007.6
20260505234125 52 246 0.0 5.0 0.00 0.00 0.00 46 1007.4
20260505233623 52 154 5.0 10.0 0.00 0.00 0.00 46 1007.6
20260505233120 52 102 0.0 3.0 0.00 0.00 0.00 47 1007.4
20260505232618 53 107 3.0 4.0 0.00 0.00 0.00 45 1007.4
20260505232115 53 192 3.0 5.0 0.00 0.00 0.00 43 1007.3
20260505231612 53 307 1.0 7.0 0.00 0.00 0.00 44 1007.6
20260505231111 53 192 2.0 5.0 0.00 0.00 0.00 44 1007.3
20260505230608 53 199 3.0 5.0 0.00 0.00 0.00 45 1007.3
20260505230104 53 23 3.0 8.0 0.00 0.00 0.00 44 1007.4
20260505225601 53 304 0.0 3.0 0.00 0.00 0.00 45 1007.2
20260505225057 53 251 1.0 8.0 0.00 0.00 0.00 44 1007.5
20260505224554 54 118 4.0 6.0 0.00 0.00 0.00 43 1007.4
20260505224051 54 149 4.0 6.0 0.00 0.00 0.00 43 1007.6
20260505223548 54 68 1.0 5.0 0.00 0.00 0.00 45 1007.4
20260505223044 54 39 0.0 5.0 0.00 0.00 0.00 47 1007.4
20260505222541 54 150 0.0 5.0 0.00 0.00 0.00 45 1007.4
20260505222037 55 232 2.0 7.0 0.00 0.00 0.00 45 1007.5
20260505221534 55 181 2.0 3.0 0.00 0.00 0.00 45 1007.3
20260505221031 55 156 5.0 5.0 0.00 0.00 0.00 46 1007.3
20260505220528 55 326 1.0 7.0 0.00 0.00 0.00 46 1007.4
20260505220026 55 175 3.0 7.0 0.00 0.00 0.00 47 1007.4
20260505215524 55 345 3.0 6.0 0.00 0.00 0.00 51 1007.3
20260505215021 55 111 2.0 7.0 0.00 0.00 0.00 51 1007.5
20260505214519 55 179 3.0 5.0 0.00 0.00 0.00 51 1007.3
20260505214016 55 181 3.0 6.0 0.00 0.00 0.00 55 1007.5
20260505213514 55 164 1.0 3.0 0.00 0.00 0.00 56 1007.4
20260505213010 55 209 3.0 5.0 0.00 0.00 0.00 58 1007.4
20260505212506 55 185 4.0 7.0 0.00 0.00 0.00 58 1007.5
20260505212003 55 152 3.0 9.0 0.00 0.00 0.00 58 1007.3
20260505211501 55 162 7.0 11.0 0.00 0.00 0.00 58 1007.4
20260505210957 55 57 2.0 6.0 0.00 0.00 0.00 59 1007.4
20260505210454 55 254 1.0 8.0 0.00 0.00 0.00 57 1007.4
20260505205950 55 155 4.0 7.0 0.00 0.00 0.00 55 1007.5
20260505205449 55 14 2.0 5.0 0.00 0.00 0.00 57 1007.6
20260505204945 55 185 2.0 8.0 0.00 0.00 0.00 54 1007.3
20260505204444 55 181 2.0 7.0 0.00 0.00 0.00 56 1007.4
20260505203940 55 310 0.0 5.0 0.00 0.00 0.00 57 1007.4
20260505203437 55 144 0.0 4.0 0.00 0.00 0.00 58 1007.4
20260505202933 55 178 5.0 9.0 0.00 0.00 0.00 57 1007.5
20260505202430 55 130 2.0 5.0 0.00 0.00 0.00 59 1007.5
20260505201926 55 314 2.0 5.0 0.00 0.00 0.00 58 1007.4
20260505201423 55 173 0.0 6.0 0.00 0.00 0.00 57 1007.6
20260505200921 55 8 2.0 11.0 0.00 0.00 0.00 55 1007.5
20260505200418 55 148 0.0 11.0 0.00 0.00 0.00 54 1007.5
20260505195914 55 331 0.0 7.0 0.00 0.00 0.00 55 1007.4
20260505195411 55 297 2.0 6.0 0.00 0.00 0.00 55 1007.4
20260505194908 55 163 3.0 10.0 0.00 0.00 0.00 55 1007.4
20260505194406 56 174 2.0 5.0 0.00 0.00 0.00 57 1007.3
20260505193906 56 199 4.0 9.0 0.00 0.00 0.00 56 1007.4
20260505193404 56 141 2.0 5.0 0.00 0.00 0.00 65 1007.5
20260505192901 55 328 0.0 3.0 0.00 0.00 0.00 65 1007.5
20260505192359 55 193 1.0 6.0 0.00 0.00 0.00 66 1007.5
20260505191857 55 11 3.0 6.0 0.00 0.00 0.00 64 1007.7
20260505191355 55 214 4.0 6.0 0.00 0.00 0.00 65 1007.5
20260505190852 55 283 0.0 7.0 0.00 0.00 0.00 67 1007.4
20260505190347 55 14 1.0 6.0 0.00 0.00 0.00 65 1007.5
20260505185843 56 194 3.0 7.0 0.00 0.00 0.00 62 1007.4
20260505185340 57 177 2.0 5.0 0.00 0.00 0.00 63 1007.6
20260505184836 56 3 0.0 4.0 0.00 0.00 0.00 63 1007.5
20260505184333 55 204 2.0 9.0 0.00 0.00 0.00 62 1007.6
20260505183830 55 282 1.0 6.0 0.00 0.00 0.00 62 1007.6
20260505183327 55 301 3.0 11.0 0.00 0.00 0.00 64 1007.7
20260505182823 56 325 3.0 8.0 0.00 0.00 0.00 61 1007.3
20260505182320 56 333 3.0 7.0 0.00 0.00 0.00 62 1007.1
20260505181817 56 153 1.0 5.0 0.00 0.00 0.00 63 1007.1
20260505181314 57 170 5.0 12.0 0.00 0.00 0.00 60 1007.1
20260505180811 56 151 2.0 5.0 0.00 0.00 0.00 64 1007.1
20260505180307 56 105 4.0 8.0 0.00 0.00 0.00 64 1007.0
20260505175804 56 152 1.0 5.0 0.00 0.00 0.00 65 1006.8
20260505175300 56 336 2.0 6.0 0.00 0.00 0.00 64 1007.0
20260505174757 56 79 2.0 4.0 0.00 0.00 0.00 66 1006.8
20260505174254 57 217 2.0 5.0 0.00 0.00 0.00 64 1006.8
20260505173750 57 334 2.0 6.0 0.00 0.00 0.00 64 1006.9
20260505173247 55 186 1.0 6.0 0.00 0.00 0.00 67 1006.8
20260505172744 55 321 2.0 7.0 0.00 0.00 0.00 66 1006.9
20260505172241 54 304 2.0 3.0 0.00 0.00 0.00 70 1007.1
20260505171741 54 306 1.0 3.0 0.00 0.00 0.00 71 1007.1
20260505171238 54 227 2.0 5.0 0.00 0.00 0.00 69 1006.6
20260505170734 54 155 1.0 6.0 0.00 0.00 0.00 71 1006.7
20260505170232 54 15 1.0 3.0 0.00 0.00 0.00 73 1006.7
20260505165727 53 158 3.0 5.0 0.00 0.00 0.00 75 1006.7
20260505165223 54 159 4.0 7.0 0.00 0.00 0.00 73 1006.6
20260505164718 54 171 5.0 7.0 0.00 0.00 0.00 76 1006.6
20260505164216 54 205 0.0 5.0 0.00 0.00 0.00 78 1006.9
20260505163714 53 155 2.0 5.0 0.00 0.00 0.00 77 1007.1
20260505163212 52 161 2.0 6.0 0.00 0.00 0.00 79 1006.9
20260505162709 52 161 3.0 9.0 0.00 0.00 0.00 78 1007.1
20260505162206 51 147 2.0 8.0 0.00 0.00 0.00 79 1006.9
20260505161703 51 214 4.0 8.0 0.00 0.00 0.00 78 1006.9
20260505161201 51 180 3.0 4.0 0.00 0.00 0.00 79 1007.0
20260505160658 51 211 3.0 5.0 0.00 0.00 0.00 76 1006.8
20260505160156 51 192 3.0 5.0 0.00 0.00 0.00 78 1006.9
20260505153135 50 77 1.0 3.0 0.00 0.00 0.00 78 1006.8
20260505152631 50 156 2.0 2.0 0.00 0.00 0.00 79 1006.7
20260505152127 50 155 2.0 2.0 0.00 0.00 0.00 78 1006.9
20260505151623 50 89 2.0 4.0 0.00 0.00 0.00 77 1006.8
20260505151120 50 76 0.0 1.0 0.02 0.00 0.00 76 1007.3
20260505150616 50 131 1.0 3.0 0.02 0.00 0.00 76 1007.1
20260505150113 50 22 0.0 6.0 0.00 0.00 0.00 76 1007.0
20260505140542 51 36 3.0 6.0 0.00 0.00 0.00 76 1006.1
20260505124955 51 72 2.0 4.0 0.00 0.00 0.00 79 1004.1
20260505124452 51 50 3.0 4.0 0.00 0.00 0.00 79 1004.3
20260505123948 51 336 2.0 7.0 0.00 0.00 0.00 77 1004.3
20260505123444 52 15 3.0 4.0 0.00 0.00 0.00 77 1004.3
20260505122941 52 332 6.0 6.0 0.00 0.00 0.00 76 1004.4
20260505122438 52 315 5.0 6.0 0.00 0.00 0.00 77 1004.0
20260505121935 52 10 3.0 7.0 0.00 0.00 0.00 77 1003.8
20260505121432 52 7 3.0 6.0 0.00 0.00 0.00 76 1003.7
20260505120928 52 325 5.0 9.0 0.00 0.00 0.00 77 1003.6
20260505120424 53 340 3.0 9.0 0.00 0.00 0.00 77 1003.8
20260505115923 55 344 5.0 12.0 0.00 0.00 0.00 76 1003.8
20260505115420 56 28 2.0 5.0 0.00 0.00 0.00 77 1003.6
20260505114918 55 343 0.0 5.0 0.00 0.00 0.00 78 1003.4
20260505114414 55 159 3.0 6.0 0.00 0.00 0.00 80 1003.3
20260505113910 55 340 2.0 4.0 0.00 0.00 0.00 82 1003.3
20260505113407 55 101 3.0 5.0 0.00 0.00 0.00 82 1003.6
20260505112903 55 154 0.0 3.0 0.00 0.00 0.00 83 1003.4
20260505112401 55 298 4.0 5.0 0.00 0.00 0.00 84 1003.2
20260505111857 55 312 0.0 2.0 0.00 0.00 0.00 84 1003.0
20260505111352 55 29 2.0 4.0 0.00 0.00 0.00 84 1002.8
20260505110848 55 111 3.0 4.0 0.00 0.00 0.00 84 1002.8
20260505110345 55 148 0.0 7.0 0.00 0.00 0.00 84 1002.8
20260505101815 55 181 0.0 6.0 0.00 0.00 0.00 86 1001.7
20260505101311 55 200 3.0 5.0 0.00 0.00 0.00 86 1001.8
20260505100807 55 192 0.0 5.0 0.00 0.00 0.00 86 1001.2
20260505100304 55 190 0.0 4.0 0.00 0.00 0.00 86 1001.5
20260505095759 55 163 2.0 4.0 0.00 0.00 0.00 86 1001.2
20260505095257 55 188 2.0 6.0 0.00 0.00 0.00 86 1001.3
20260505094752 56 196 2.0 6.0 0.00 0.00 0.00 86 1001.0
20260505094249 56 181 3.0 5.0 0.00 0.00 0.00 86 1001.3
20260505093745 56 180 3.0 7.0 0.00 0.00 0.00 86 1001.2
20260505093243 56 155 3.0 4.0 0.00 0.00 0.00 86 1001.2
20260505092740 56 199 3.0 6.0 0.00 0.00 0.00 86 1000.9
20260505092238 56 181 3.0 4.0 0.00 0.00 0.00 86 1001.0
20260505091735 57 181 2.0 5.0 0.00 0.00 0.00 86 1001.1
20260505091233 57 173 3.0 6.0 0.00 0.00 0.00 86 1001.1
20260505090730 57 186 4.0 9.0 0.00 0.00 0.00 86 1001.0
20260505090229 57 200 3.0 7.0 0.00 0.00 0.00 85 1001.2
20260505085726 57 187 3.0 7.0 0.00 0.00 0.00 85 1001.1
20260505085224 57 201 4.0 8.0 0.00 0.00 0.00 85 1000.9
20260505084721 57 182 3.0 5.0 0.00 0.00 0.00 84 1000.8
20260505084220 57 176 4.0 9.0 0.00 0.00 0.00 84 1000.8
20260505083716 57 202 1.0 6.0 0.00 0.00 0.00 84 1000.6
20260505083213 58 241 2.0 7.0 0.00 0.00 0.00 83 1000.7
20260505082709 58 188 2.0 9.0 0.00 0.00 0.00 83 1000.7
20260505082207 58 195 2.0 8.0 0.00 0.00 0.00 82 1000.6
20260505081702 58 163 1.0 8.0 0.00 0.00 0.00 82 1000.2
20260505081200 58 190 3.0 6.0 0.00 0.00 0.00 81 1000.0
20260505080657 59 179 3.0 9.0 0.00 0.00 0.00 81 1000.2
20260505080152 59 204 3.0 9.0 0.00 0.00 0.00 80 1000.3
20260505075648 59 173 3.0 7.0 0.00 0.00 0.00 80 1000.3
20260505075146 59 171 5.0 8.0 0.00 0.00 0.00 80 1000.1
20260505074643 59 181 4.0 10.0 0.00 0.00 0.00 79 1000.1
20260505074139 59 146 7.0 9.0 0.00 0.00 0.00 79 1000.1
20260505073637 59 164 5.0 9.0 0.00 0.00 0.00 79 1000.0
20260505073135 59 178 2.0 4.0 0.00 0.00 0.00 79 999.8
20260505072630 59 179 1.0 7.0 0.00 0.00 0.00 79 999.8
20260505072127 59 152 3.0 8.0 0.00 0.00 0.00 79 999.6
20260505071623 59 163 2.0 5.0 0.00 0.00 0.00 79 999.5
20260505071121 59 188 3.0 8.0 0.00 0.00 0.00 79 999.5
20260505070618 59 191 4.0 9.0 0.00 0.00 0.00 79 999.4
20260505070114 59 162 2.0 8.0 0.00 0.00 0.00 80 999.5
20260505065610 59 141 3.0 5.0 0.00 0.00 0.00 82 999.8
20260505065107 59 198 0.0 7.0 0.00 0.00 0.00 82 999.6
20260505064604 59 167 0.0 5.0 0.00 0.00 0.00 82 999.7
20260505064103 59 55 3.0 5.0 0.00 0.00 0.00 81 999.6
20260505063559 59 183 3.0 7.0 0.00 0.00 0.00 81 999.7
20260505063055 59 174 2.0 6.0 0.00 0.00 0.00 81 999.7
20260505062552 59 158 3.0 6.0 0.00 0.00 0.00 81 999.4
20260505062049 59 252 0.0 5.0 0.00 0.00 0.00 81 999.5
20260505061546 60 184 3.0 5.0 0.00 0.00 0.00 81 999.4
20260505061044 60 201 4.0 8.0 0.00 0.00 0.00 77 999.8
20260505060541 60 198 1.0 8.0 0.00 0.00 0.00 77 1000.0
20260505060038 60 267 0.0 6.0 0.00 0.00 0.00 76 999.9
20260505055533 60 106 1.0 10.0 0.00 0.00 0.00 76 1000.2
20260505055030 60 217 2.0 9.0 0.00 0.00 0.00 76 1000.4
20260505054527 60 183 4.0 10.0 0.00 0.00 0.00 75 1000.3
20260505054026 61 203 3.0 7.0 0.00 0.00 0.00 75 1000.2
20260505053522 61 149 4.0 8.0 0.00 0.00 0.00 74 1000.4
20260505053019 61 170 8.0 10.0 0.00 0.00 0.00 74 1000.0
20260505052516 61 195 2.0 10.0 0.00 0.00 0.00 74 999.8
20260505052014 62 199 2.0 7.0 0.00 0.00 0.00 73 999.9
20260505051510 62 170 2.0 8.0 0.00 0.00 0.00 73 999.9
20260505051009 62 180 4.0 10.0 0.00 0.00 0.00 72 999.8
20260505050506 62 188 4.0 8.0 0.00 0.00 0.00 73 999.9